EHI
0 0 0 0 0 0 0 0 0 0 0 0 0 0 0 0 0 0 0 0 0 0 0 0 0 1 1 1 1 2 2 1 0 0 0 1 2 4 4 2 1 2 3 5
0 0 0 0 0 0 0 0 0 0 0 0 0 0 0 0 0 0 0 0 0 0 0 0 1 2 2 2 2 2 2 1 0 1 1 2 3 3 3 3 1 1 2 3
0 0 0 0 0 0 0 0 0 0 0 0 0 0 0 0 0 0 0 0 0 0 0 0 1 2 2 2 2 1 1 0 1 2 3 3 3 3 3 4 3 1 1 2
0 0 0 0 0 0 0 0 0 0 0 0 0 0 0 0 0 0 0 0 0 1 1 1 0 1 1 3 2 1 0 0 1 4 4 3 3 3 4 5 5 3 2 2
0 0 0 0 0 0 0 0 0 0 0 0 0 0 0 0 0 0 0 0 0 1 1 1 0 0 2 4 3 1 0 1 2 4 4 3 3 3 3 4 5 4 3 3
0 0 0 0 0 0 0 0 0 0 0 0 0 0 0 0 0 0 0 0 0 0 1 0 1 3 5 5 4 2 1 2 4 5 4 3 3 3 3 4 6 5 4 4
0 0 0 0 0 0 0 0 0 0 0 0 0 0 0 0 0 0 0 0 0 0 1 2 3 7 8 6 4 2 2 4 5 5 4 4 3 3 3 5 6 6 5 4
0 0 0 0 0 0 0 0 0 0 0 0 0 0 0 0 0 0 0 0 0 0 2 4 6 8 8 6 3 2 3 5 6 5 4 4 4 3 4 6 6 6 6 4
0 0 0 0 0 0 0 0 0 0 0 0 0 0 0 0 0 0 0 0 0 0 2 5 7 7 6 4 3 3 4 6 7 6 4 4 4 4 5 7 7 6 6 4
0 0 0 0 0 0 0 0 0 0 0 0 0 0 0 0 0 0 0 0 0 0 2 4 8 8 6 4 3 4 6 7 7 6 5 5 5 5 7 8 8 6 5 4
0 0 0 0 0 0 0 0 0 0 0 0 0 0 0 0 0 0 0 0 0 1 1 3 7 9 8 5 4 4 6 7 8 7 6 6 6 6 7 8 8 6 4 2
0 0 0 0 0 0 0 0 0 0 0 0 0 0 0 0 0 0 0 0 0 1 0 2 5 7 7 6 4 3 5 7 8 7 7 6 6 6 7 8 7 5 3 1
0 0 0 0 0 0 0 0 0 0 0 0 0 0 0 0 0 0 0 0 0 0 0 1 4 6 6 5 3 2 4 7 9 8 7 7 6 6 7 7 6 3 1 0
0 0 0 0 0 0 0 0 0 0 0 0 0 0 0 0 0 0 0 1 1 0 0 1 3 5 5 4 2 2 4 7 9 9 8 7 6 6 6 6 5 2 0 0
0 0 0 0 0 0 0 0 0 0 0 0 0 0 0 0 0 0 1 2 1 0 0 0 1 3 4 4 4 3 4 6 8 8 8 7 7 7 7 7 6 4 2 1
0 0 0 0 0 0 0 0 0 0 0 0 0 0 0 0 0 0 1 2 1 0 0 0 0 1 2 4 6 6 6 7 8 8 9 9 9 9 9 8 7 5 4 3
0 0 0 0 0 0 0 0 0 0 0 0 0 0 0 0 0 0 1 1 1 0 0 0 0 0 0 3 6 8 8 8 9 9 10 11 12 11 10 8 7 6 5 5
0 0 0 0 0 0 0 0 0 0 0 0 0 0 0 0 0 0 0 0 0 0 1 1 1 1 1 2 5 8 10 10 9 9 10 12 13 12 10 8 7 6 6 6
0 0 0 0 0 0 0 0 0 0 0 0 0 0 0 0 0 0 0 0 0 1 2 2 2 2 2 3 4 7 9 10 9 9 10 11 11 11 9 6 6 6 6 6
0 0 0 0 0 0 0 0 0 0 0 0 0 0 0 0 0 0 0 0 0 1 1 2 2 2 2 3 4 6 8 8 8 8 8 8 8 7 6 5 4 4 4 4
0 0 0 0 0 0 0 0 0 0 0 0 0 0 0 0 0 0 0 0 0 0 0 1 1 1 1 2 3 4 5 5 5 5 5 5 4 4 4 3 3 3 3 2
0 0 0 0 0 0 0 0 0 0 0 0 0 0 0 0 0 0 0 0 0 0 0 0 0 1 2 2 3 4 4 3 3 3 3 3 2 2 2 2 2 2 1 1
0 0 0 0 0 0 0 0 0 0 0 0 0 0 0 0 0 0 0 0 0 0 0 0 0 1 2 2 2 3 3 2 1 1 1 1 1 1 1 1 1 1 0 0
0 0 0 0 0 0 0 0 0 0 0 0 0 0 0 0 0 0 0 0 0 0 0 0 0 0 1 1 1 1 1 1 0 0 0 0 0 0 0 0 0 0 0 0
0 0 0 0 0 0 0 0 0 0 0 0 0 0 0 0 0 0 0 0 0 0 0 0 0 0 0 0 0 0 0 0 0 0 0 0 0 0 0 0 0 0 0 0
0 0 0 0 0 0 0 0 0 0 0 0 0 0 0 0 0 0 0 0 0 0 0 0 0 0 0 0 0 0 0 0 0 0 0 0 0 0 0 0 0 0 0 0
Wind_Speed
7 6 5 4 4 4 5 5 4 1 2 3 4 5 6 7 7 7 7 7 7 7 8 8 7 6 5 5 5 6 5 4 3 2 2 2 2 2 2 2 2 3 3 3
5 6 4 3 3 5 6 6 5 2 2 3 5 7 6 7 9 8 7 7 8 8 8 8 8 6 5 5 5 6 6 5 4 2 2 2 2 2 2 1 2 2 2 2
6 4 3 5 6 6 6 5 5 4 5 7 7 7 7 7 7 8 7 6 7 8 8 8 8 7 6 5 5 5 5 5 4 4 2 2 2 1 2 2 1 1 2 3
7 5 5 5 5 5 5 4 5 6 5 5 6 5 5 7 8 8 8 7 6 6 7 8 7 7 6 5 5 5 6 6 5 5 3 3 2 2 2 2 2 1 1 2
5 4 5 5 5 5 5 5 6 8 8 9 9 7 4 6 8 8 7 7 6 6 7 7 7 6 6 5 4 4 5 5 5 5 4 3 2 2 1 2 2 2 1 1
8 4 4 4 5 5 5 6 7 8 7 8 10 7 3 3 5 8 7 7 6 6 7 6 7 6 5 5 4 3 4 4 5 5 5 3 3 2 2 2 2 1 1 1
9 8 6 5 6 6 6 5 3 4 5 6 4 4 1 4 3 5 7 6 6 6 6 6 7 7 6 6 5 4 4 4 4 5 5 4 4 3 3 3 2 2 1 1
7 7 8 6 6 5 7 8 5 3 3 3 2 3 3 6 5 6 6 5 6 6 6 6 6 7 6 6 6 5 5 4 4 4 4 4 4 3 2 3 2 2 2 2
5 4 5 5 5 6 7 7 7 7 8 6 3 2 4 6 7 6 6 5 5 5 5 6 5 6 6 6 6 5 5 4 4 4 3 4 4 3 3 3 3 2 2 2
6 6 5 5 6 9 9 7 4 4 4 5 4 3 3 7 8 7 6 5 4 4 4 5 5 6 6 6 5 5 5 4 4 4 3 3 3 4 4 3 3 3 3 2
7 8 6 6 7 7 8 8 6 4 5 4 3 1 3 5 6 6 5 4 4 4 4 4 4 5 5 5 5 5 4 4 4 4 3 3 3 3 3 3 3 3 3 2
4 6 8 8 6 6 7 7 6 5 5 4 4 1 3 5 5 5 4 5 4 3 4 4 4 4 5 5 5 4 4 4 3 3 3 3 3 3 3 3 3 3 3 3
3 5 7 5 5 6 7 7 7 6 6 6 5 2 3 4 4 4 4 4 4 3 4 4 3 3 4 5 5 4 4 4 3 3 3 2 2 3 3 3 3 3 3 3
3 7 8 8 5 4 7 7 8 7 6 7 7 4 3 2 2 3 3 4 3 2 3 3 3 3 3 4 4 4 4 4 3 3 3 3 3 2 2 2 3 3 3 3
4 8 9 9 9 8 9 8 8 10 10 10 9 7 6 3 2 2 3 4 3 2 3 3 3 3 3 3 3 3 3 4 4 4 3 3 3 3 2 2 2 2 2 3
5 7 8 9 9 9 11 10 10 10 11 12 11 8 3 2 2 2 3 3 3 3 2 2 2 3 3 3 3 2 3 3 4 4 4 3 3 3 3 3 3 3 2 2
6 7 8 8 8 9 11 8 8 8 9 9 8 5 2 1 1 1 1 2 2 3 2 1 1 1 2 2 3 2 2 2 4 4 4 3 3 3 3 3 2 3 3 3
8 8 6 7 8 11 4 2 3 5 6 5 4 2 1 0 0 0 1 1 2 2 2 2 1 0 0 1 2 2 2 2 3 3 3 3 3 3 2 2 2 2 2 2
9 7 6 5 8 9 5 3 2 3 5 3 2 0 1 2 0 0 2 2 2 2 2 2 1 1 0 0 1 2 2 2 2 3 3 3 3 3 2 2 2 2 2 2
7 7 7 6 7 7 2 1 1 3 4 1 1 1 1 1 1 1 2 3 3 3 2 2 1 1 1 0 1 1 2 2 2 2 1 2 2 3 2 2 2 1 1 2
5 7 8 9 9 6 1 1 1 2 1 4 2 1 0 1 1 2 4 4 3 2 2 2 1 1 0 0 0 1 2 2 2 1 1 1 2 2 2 2 1 1 1 1
5 4 6 6 8 4 2 1 1 2 4 4 4 3 3 3 4 4 3 2 2 2 2 1 1 1 1 0 1 1 1 1 1 1 1 1 1 2 2 2 1 1 2 2
4 3 2 3 3 2 3 3 4 4 4 4 3 3 3 2 2 2 2 1 1 1 0 0 0 0 0 0 1 1 1 1 2 1 1 1 1 1 1 2 2 2 1 1
3 3 5 5 3 3 3 4 4 4 5 4 3 3 2 1 1 1 1 1 1 0 0 0 0 0 0 0 1 0 1 2 2 2 2 2 2 2 1 0 1 1 1 1
5 5 6 7 4 2 2 3 4 4 4 4 3 3 2 2 1 1 1 0 0 0 0 0 0 0 1 0 0 0 1 1 2 2 2 1 1 1 1 1 1 1 1 2
5 5 5 5 4 4 3 2 3 3 3 3 3 3 2 2 2 1 0 0 0 0 0 0 1 1 0 0 0 0 1 1 1 1 1 1 1 1 1 1 1 2 1 2
Wind_Direction
211 226 229 228 234 266 269 274 272 230 189 211 242 239 206 191 192 202 195 184 179 177 172 164 162 153 154 154 149 140 142 140 127 110 104 99 94 85 75 71 63 44 34 37
219 235 240 255 243 250 260 266 268 262 243 244 249 251 218 198 196 199 197 189 185 177 171 162 163 161 165 161 156 151 153 149 136 123 126 130 122 119 116 96 69 60 52 40
230 239 224 239 244 249 254 267 280 281 287 274 264 258 221 198 195 189 193 187 184 176 170 164 168 168 167 165 163 155 151 143 137 138 123 112 100 100 94 100 81 53 57 59
230 232 235 240 247 261 268 283 287 279 273 271 258 268 230 191 185 184 183 184 182 176 166 159 164 165 169 166 161 158 154 149 148 142 141 142 146 151 158 140 134 118 82 80
239 224 232 246 259 264 275 296 285 274 270 273 261 261 231 177 179 178 173 171 166 159 156 154 163 163 163 158 156 161 156 152 152 148 150 155 151 145 142 127 134 142 118 105
247 233 231 244 253 259 268 271 268 259 260 260 247 241 231 173 165 158 157 156 156 152 152 152 160 154 154 147 147 155 155 151 151 153 155 162 155 153 148 143 150 152 144 161
228 224 213 223 242 224 241 256 255 229 218 238 225 225 169 100 94 131 137 143 144 144 147 151 154 154 155 150 151 154 152 151 158 164 166 174 169 175 165 158 168 167 157 174
241 220 205 202 230 240 236 242 258 276 272 284 249 214 129 116 105 102 113 121 132 140 143 149 152 156 154 151 157 166 163 160 166 177 178 176 172 173 168 173 170 174 166 177
268 235 182 184 214 238 247 247 264 284 293 286 242 154 137 131 126 126 129 128 129 131 137 143 144 150 155 157 163 169 168 168 172 183 186 181 175 178 173 177 173 168 172 179
272 275 228 191 211 223 241 265 275 260 278 278 270 229 174 158 155 146 135 130 131 130 135 142 144 149 155 161 166 172 174 176 177 181 191 188 185 185 179 184 183 173 175 170
257 264 246 206 212 228 222 236 248 258 255 275 291 334 79 136 136 135 134 124 120 128 136 138 143 147 149 151 161 173 179 177 181 188 192 187 190 187 179 187 178 166 167 176
258 267 261 241 215 216 232 242 244 250 265 268 275 288 84 104 109 109 110 110 109 115 125 128 130 136 146 155 162 170 176 178 180 184 187 188 183 177 183 193 178 170 178 190
289 262 261 240 210 204 225 234 243 254 265 263 259 232 127 117 115 107 109 105 103 112 117 127 135 143 158 162 167 173 171 173 172 172 176 174 176 187 196 193 183 182 185 191
268 254 257 260 265 257 246 244 244 246 251 260 260 256 236 179 136 130 127 123 122 135 130 140 152 157 160 165 169 170 170 165 161 158 165 172 181 189 197 189 186 190 188 192
249 258 270 273 272 269 270 260 258 254 255 261 268 267 254 231 195 172 151 133 142 161 149 151 160 159 160 163 170 168 165 164 163 160 169 184 188 186 186 190 197 194 190 200
246 267 280 273 267 274 269 257 256 257 257 259 268 273 266 244 211 182 158 142 155 164 141 136 153 159 172 176 173 166 166 170 165 167 181 184 186 183 186 190 202 199 195 206
252 260 274 273 271 272 261 248 246 259 257 257 260 263 232 229 226 196 157 156 165 140 133 141 151 162 182 184 165 166 176 182 176 175 179 181 185 189 192 199 194 199 202 207
256 259 263 268 269 257 259 253 256 264 267 272 266 252 209 189 87 73 127 140 122 126 127 107 80 55 153 161 159 165 170 183 186 178 175 181 189 193 192 181 183 202 210 205
240 249 254 256 260 265 255 254 276 288 285 293 280 205 83 84 53 116 75 66 82 90 94 93 72 41 39 97 165 166 179 193 197 192 188 186 183 181 181 179 196 209 212 210
230 240 244 249 258 262 250 321 314 286 277 7 35 105 101 166 235 205 81 71 68 71 71 70 63 36 61 32 91 167 182 188 197 199 191 178 174 169 177 197 216 209 195 206
231 236 239 249 254 262 344 357 323 257 346 19 8 64 69 305 17 79 79 74 70 61 62 62 63 49 67 74 186 214 202 202 190 163 161 170 167 168 179 198 209 192 187 193
240 244 248 252 251 255 38 28 354 354 6 5 12 27 35 47 61 73 76 78 78 58 42 34 33 38 48 41 254 229 198 150 124 128 157 172 177 181 178 171 195 192 178 202
237 244 257 256 269 345 349 354 358 348 343 360 11 23 36 42 64 80 82 85 92 82 5 340 6 75 3 332 301 254 145 131 135 146 165 174 176 179 180 172 195 196 181 214
263 272 267 267 260 288 315 336 342 349 352 1 9 7 360 344 49 92 131 153 153 176 276 312 177 182 287 302 304 344 119 143 155 162 172 182 179 177 158 154 183 171 167 218
294 293 271 267 274 293 308 334 338 340 339 343 351 344 336 332 315 289 236 217 180 112 22 290 236 218 284 298 353 65 116 147 166 162 164 170 145 136 133 109 60 149 173 212
276 275 271 277 299 297 303 319 315 308 312 324 324 318 323 324 306 302 283 201 111 133 265 243 201 185 244 280 33 49 124 159 168 158 150 137 125 138 160 140 78 42 162 177